SCP
0 0 0 0 0 0 0 0 0 0 0 0 0 0 0 0 0 0 0 0 0 0 0 0 0 0 0 0 0 0 0 0 0 0 0 0 0 0 0 0 0 0 0 0
0 0 0 0 0 0 0 0 0 0 0 0 0 0 0 0 0 0 0 0 0 0 0 0 0 0 0 0 0 0 0 0 0 0 0 0 0 0 0 0 0 0 0 0
0 0 0 0 0 0 0 0 0 0 0 0 0 0 0 0 0 0 0 0 0 0 0 0 0 0 0 0 0 0 0 0 0 0 0 0 0 0 0 0 0 0 0 0
0 0 0 0 0 0 0 0 0 0 0 0 0 0 0 0 0 0 0 0 0 0 0 0 0 0 0 0 0 0 0 0 0 0 0 0 0 0 0 0 0 0 0 0
0 0 0 0 0 0 0 0 0 0 0 0 0 0 0 0 0 0 0 0 0 0 0 0 0 0 0 0 0 0 0 0 0 0 0 0 0 0 0 0 0 0 0 0
0 0 0 0 0 0 0 0 0 0 0 0 0 0 0 0 0 0 0 0 0 0 0 0 0 0 0 0 0 0 0 0 0 0 0 0 0 0 0 0 0 0 0 0
0 0 0 0 0 0 0 0 0 0 0 0 0 0 0 0 0 0 0 0 0 0 0 0 0 0 0 0 0 0 0 0 0 0 0 -0 -0 0 0 0 0 0 0 0
0 0 0 0 0 0 0 0 0 0 0 0 0 0 0 0 0 0 0 0 0 0 0 0 0 0 0 0 0 0 0 0 0 0 0 0 0 0 0 0 0 0 0 0
0 0 0 0 0 0 0 0 0 0 0 0 0 0 0 0 0 0 0 0 0 0 0 0 0 0 0 0 0 0 0 0 0 0 0 0 0 0 0 0 0 0 0 0
0 0 0 0 0 0 0 0 0 0 0 0 0 0 0 0 0 0 0 0 0 0 0 0 0 0 0 0 0 0 0 0 0 0 0 0 0 0 0 0 0 0 0 0
0 0 0 0 0 0 0 0 0 0 0 0 0 0 0 0 0 0 0 0 0 0 0 0 0 0 0 0 0 0 0 0 0 0 0 0 0 0 0 0 0 0 0 0
0 0 0 0 0 0 0 0 0 0 0 0 0 0 0 0 0 0 -0 -0 -0 0 0 0 0 0 0 0 0 0 0 0 0 0 0 0 0 0 0 0 0 0 0 0
0 0 0 0 0 0 0 0 0 0 0 0 0 0 0 0 0 0 -0 -0 -0 0 0 0 0 0 0 0 0 0 0 0 0 0 0 0 0 0 0 0 0 0 0 0
0 0 0 0 0 0 0 0 0 0 0 0 0 0 0 0 0 0 -0 -0 0 0 0 0 0 0 0 0 0 0 0 0 0 0 0 0 0 0 0 0 0 0 0 0
0 0 0 0 0 0 0 0 0 0 0 0 0 0 0 0 0 0 -0 0 0 0 0 0 0 0 0 0 0 0 0 0 0 0 0 0 0 0 0 0 0 0 0 0
0 0 0 0 0 0 0 0 0 0 0 0 0 0 0 0 0 0 0 0 0 0 0 0 0 0 0 0 0 0 0 0 0 0 0 0 0 0 0 0 0 0 0 0
0 0 0 0 0 0 0 0 0 0 0 0 0 0 0 0 0 0 0 0 0 0 0 0 0 0 0 0 0 0 0 0 0 0 0 0 0 0 0 0 0 0 0 0
0 0 0 0 0 0 0 0 0 0 0 0 0 0 0 0 0 0 0 0 0 0 0 0 0 0 0 0 0 0 0 0 0 0 0 0 0 0 0 0 0 0 0 0
0 0 0 0 0 0 0 0 0 0 0 0 0 0 0 0 0 0 0 0 0 0 0 0 0 0 0 0 0 0 0 0 0 0 0 0 0 0 0 0 0 0 0 0
0 0 0 0 0 0 0 0 0 0 0 0 0 0 0 0 0 0 0 0 0 0 0 0 0 0 0 0 0 0 0 0 0 0 0 0 0 0 0 0 0 0 0 0
0 0 0 0 0 0 0 0 0 0 0 0 0 0 0 0 0 0 0 0 0 0 0 0 0 0 0 0 0 0 0 0 0 0 0 0 0 0 0 0 0 0 0 0
0 0 0 0 0 0 0 0 0 0 0 0 0 0 0 0 0 0 0 0 0 0 0 0 0 0 0 0 0 0 0 0 0 0 0 0 0 0 0 0 0 0 0 0
0 0 0 0 0 0 0 0 0 0 0 0 0 0 0 0 0 0 0 0 0 0 0 0 0 0 0 0 0 0 0 0 0 0 0 0 0 0 0 0 0 0 0 0
0 0 0 0 0 0 0 0 0 0 0 0 0 0 0 0 0 0 0 0 0 0 0 0 0 0 0 0 0 0 0 0 0 0 0 0 0 0 0 0 0 0 0 0
0 0 0 0 0 0 0 0 0 0 0 0 0 0 0 0 0 0 0 0 0 0 0 0 0 0 0 0 0 0 0 0 0 0 0 0 0 0 0 0 0 0 0 0
0 0 0 0 0 0 0 0 0 0 0 0 0 0 0 0 0 0 0 0 0 0 0 0 0 0 0 0 0 0 0 0 0 0 0 0 0 0 0 0 0 0 0 0
0 0 0 0 0 0 0 0 0 0 0 0 0 0 0 0 0 0 0 0 0 0 0 0 0 0 0 0 0 0 0 0 0 0 0 0 0 0 0 0 0 0 0 0
Wind_Speed
5 5 6 6 7 7 5 3 5 6 7 6 6 6 7 7 8 8 9 10 11 10 10 10 11 11 11 11 11 11 12 13 12 11 11 11 12 11 11 10 10 8 8 8
5 5 8 9 10 7 6 5 7 8 5 4 7 7 7 8 8 9 9 10 11 11 10 10 10 10 10 10 10 10 11 11 11 11 11 10 10 10 9 8 7 6 6 6
1 2 3 7 7 5 5 4 1 3 5 7 8 8 7 7 8 9 10 10 10 9 9 9 8 8 9 9 9 10 10 10 10 9 9 8 8 8 7 6 5 5 5 4
2 3 3 1 1 3 5 6 5 7 8 9 10 9 8 7 8 10 10 9 9 8 8 8 8 8 8 8 9 9 9 8 8 7 7 7 7 7 5 4 4 3 2 2
4 3 1 1 1 1 2 3 4 7 10 11 11 10 8 8 9 9 9 8 8 8 8 7 7 6 8 8 7 8 7 6 6 6 6 6 6 4 3 2 2 1 1 1
4 4 2 2 3 1 4 2 3 6 9 8 5 5 4 6 9 9 8 7 8 8 8 7 6 6 8 7 7 6 5 5 5 5 5 5 4 3 2 2 2 2 2 2
3 2 2 2 4 1 1 2 4 6 7 5 3 5 8 9 9 8 8 8 8 8 7 5 5 6 7 6 5 4 4 5 5 4 4 4 3 2 2 2 3 3 3 3
3 2 2 4 2 2 3 2 5 6 7 9 10 11 10 9 9 8 8 8 7 7 6 4 4 6 6 4 3 3 4 4 4 3 3 3 3 2 2 2 2 2 2 2
4 4 3 2 2 2 4 5 4 6 9 13 12 11 10 9 8 7 7 6 6 7 6 4 4 5 5 2 2 4 4 3 2 2 2 2 2 2 1 2 1 1 1 1
3 1 1 3 3 3 4 5 7 9 11 12 12 11 10 8 7 7 6 6 5 6 5 4 3 3 2 1 2 3 3 1 1 1 1 1 1 1 1 1 0 0 0 1
2 2 3 2 3 5 7 10 11 10 9 10 12 11 9 8 7 6 5 4 4 5 4 2 1 1 1 1 2 2 2 1 0 0 1 0 0 0 1 1 2 2 1 1
6 7 6 4 5 6 9 9 11 11 9 8 9 9 8 7 5 5 5 4 4 3 2 1 1 1 1 1 2 2 1 1 1 1 1 1 1 1 3 1 1 2 3 2
3 4 5 7 6 6 7 8 9 10 10 9 7 8 8 5 4 4 4 4 3 3 2 1 0 2 2 1 2 2 2 2 1 1 1 1 1 1 0 2 2 1 2 3
5 7 6 4 5 7 9 10 10 10 9 8 7 7 7 6 5 5 4 3 2 2 1 1 1 2 3 1 2 2 3 3 2 2 1 1 1 1 1 1 1 2 3 4
3 5 7 8 9 10 10 12 12 10 8 7 7 7 7 6 5 4 3 2 2 1 1 1 1 3 3 1 1 2 2 2 1 1 1 1 2 2 2 1 1 1 2 3
7 8 10 12 12 11 11 12 12 9 8 7 6 6 6 5 4 3 2 3 2 1 1 1 2 3 3 1 1 1 1 2 2 2 2 3 3 3 2 1 1 1 2 3
10 9 9 11 11 11 10 10 11 10 9 8 7 6 6 5 4 2 1 1 1 1 0 1 2 3 2 1 0 0 0 1 3 3 2 2 2 2 2 1 1 1 2 3
8 9 11 13 13 11 10 10 10 10 8 7 8 7 6 5 4 3 1 1 1 1 1 1 2 2 2 2 1 1 1 2 2 2 2 2 2 2 1 1 0 1 1 2
8 10 10 10 11 12 11 9 9 8 8 8 8 6 5 4 3 2 2 1 1 1 2 2 2 1 2 3 1 2 2 3 3 2 2 2 2 1 1 1 0 1 1 2
8 10 11 11 10 10 11 10 9 8 7 7 7 5 4 3 2 2 2 1 2 2 2 1 1 2 2 2 2 2 2 3 3 2 2 2 2 1 1 1 1 1 2 2
11 11 12 11 10 10 10 10 9 8 7 7 7 6 4 2 2 2 1 1 2 1 1 1 0 1 2 1 2 2 2 3 3 2 2 2 2 2 2 2 2 2 2 2
11 11 11 11 11 9 8 8 8 8 7 6 5 5 4 3 2 1 1 2 2 1 1 0 1 2 1 1 2 2 2 3 3 3 3 3 3 2 2 2 2 2 2 2
10 10 11 11 11 9 8 7 8 8 7 6 6 6 5 4 3 2 2 2 1 2 1 1 2 1 2 2 1 2 2 3 3 3 3 3 3 3 2 2 1 1 1 1
9 10 10 9 9 9 8 6 6 6 6 6 5 5 5 3 2 3 2 2 4 3 2 2 2 1 3 2 2 2 2 2 2 3 3 3 3 2 2 2 1 1 1 2
10 9 9 10 10 7 7 7 6 5 5 3 3 4 3 3 3 3 3 3 4 3 2 2 2 2 2 2 2 2 2 2 3 3 3 3 3 2 2 2 1 1 1 1
9 9 8 8 7 6 6 6 5 4 4 3 2 2 2 2 2 2 2 3 3 3 2 2 2 2 2 2 2 2 2 2 3 3 3 3 3 3 2 2 2 2 2 2
9 7 6 5 5 6 6 6 5 5 5 5 4 3 3 3 3 3 3 2 2 2 2 2 2 2 2 2 2 2 2 2 2 2 3 2 2 2 2 3 2 2 2 2
Wind_Direction
58 56 78 63 38 41 68 123 143 142 137 149 139 129 118 110 105 95 83 77 75 74 70 67 65 63 64 64 64 70 74 75 76 77 80 82 82 82 83 83 86 86 85 81
56 56 71 56 29 30 45 56 96 109 97 93 103 100 101 103 104 98 92 89 85 81 76 72 70 68 67 66 65 71 75 77 77 78 78 80 83 86 87 87 86 86 84 83
91 306 43 31 359 18 40 23 93 135 129 125 106 96 97 104 105 102 99 94 89 82 75 72 70 73 74 73 71 73 76 78 79 81 82 84 92 92 92 90 89 86 83 83
85 52 60 281 5 74 81 51 58 94 101 103 99 87 75 85 102 103 98 94 89 84 79 72 71 72 76 76 77 80 80 81 83 85 86 85 87 89 90 90 93 93 90 83
93 89 82 284 19 18 103 74 73 107 111 109 109 90 67 70 87 93 94 92 88 85 85 83 78 81 84 80 78 82 83 82 83 88 90 89 88 87 84 87 79 66 62 36
97 116 201 259 325 325 110 113 136 130 132 135 130 110 105 94 94 93 90 89 91 90 86 82 78 86 88 84 84 85 87 87 86 91 95 94 92 83 63 66 51 41 33 12
89 108 275 303 315 48 141 227 153 141 138 127 97 111 121 110 98 94 92 92 92 89 85 82 87 92 90 87 85 89 91 88 85 89 99 101 87 67 66 62 53 40 35 23
112 97 268 328 22 122 176 104 107 113 116 113 111 111 111 108 104 100 96 93 93 92 83 75 90 98 93 85 81 88 90 88 85 81 80 95 91 73 62 65 58 35 25 16
164 194 247 336 67 90 121 112 112 118 124 125 123 119 114 109 105 100 98 94 92 97 88 72 79 102 102 99 103 99 92 89 78 66 58 81 102 99 74 68 64 21 19 358
101 107 72 68 73 70 86 106 115 123 127 126 124 122 117 111 106 102 99 97 98 97 92 82 81 92 110 122 122 117 112 103 81 76 50 48 66 118 139 148 143 86 17 343
111 151 107 70 93 104 99 104 108 109 112 121 123 121 118 113 110 108 104 98 100 103 105 107 108 103 130 144 134 127 132 127 94 200 222 120 69 70 203 215 201 184 197 218
201 196 165 167 140 129 122 122 125 120 110 111 119 119 116 113 114 115 111 108 108 110 119 129 140 263 283 188 157 158 188 241 239 243 239 192 150 61 39 51 115 169 186 202
173 133 121 125 122 119 122 125 124 122 125 120 113 118 117 114 116 116 118 128 138 149 157 162 242 283 287 224 176 190 221 247 253 246 237 214 174 154 90 9 24 7 304 291
123 110 104 118 125 120 120 119 113 108 110 114 115 115 113 111 119 128 143 160 162 159 172 211 276 293 298 271 220 227 235 248 239 235 230 205 167 153 142 101 16 346 336 340
89 111 129 121 115 115 119 120 118 115 113 109 115 121 122 126 138 152 160 154 138 154 250 260 282 301 315 288 233 240 242 246 227 182 146 128 123 121 118 106 61 351 341 344
101 97 112 123 128 130 129 131 130 130 127 123 126 131 133 135 137 141 153 159 158 192 256 322 317 313 323 332 296 274 268 232 157 127 116 114 113 112 112 102 62 15 355 346
127 132 134 138 140 140 140 140 139 138 135 134 138 133 125 120 119 133 160 173 175 192 284 338 317 321 339 354 336 300 355 100 117 112 115 120 120 126 126 108 63 3 341 345
150 151 152 150 147 140 134 133 135 136 138 139 133 130 134 142 160 187 190 123 95 28 353 331 309 325 338 349 16 109 117 111 107 113 115 117 120 125 123 124 89 348 340 351
124 131 134 138 140 139 138 137 138 136 133 133 136 144 153 165 177 187 165 153 183 287 313 335 349 352 336 341 59 118 126 119 109 106 109 115 109 104 113 121 60 13 7 9
124 130 131 131 132 135 137 137 135 134 136 136 134 137 151 178 181 165 158 203 244 240 266 288 352 340 335 349 59 111 127 130 129 124 113 107 109 104 90 84 75 59 40 25
136 137 137 138 135 136 139 140 139 141 143 143 147 162 177 187 163 145 144 276 297 277 235 209 324 321 328 357 64 109 122 127 131 133 131 126 117 107 93 81 71 58 44 27
143 142 141 140 138 137 139 139 141 143 145 151 157 157 156 165 161 151 201 223 264 201 142 158 299 310 333 58 101 120 124 125 127 127 128 130 130 125 113 99 78 64 50 36
143 143 144 145 145 142 138 141 146 149 155 162 166 171 177 182 171 167 235 237 210 170 154 234 267 314 63 79 108 128 137 138 137 137 138 139 139 137 131 119 100 83 69 50
141 143 143 139 133 135 145 158 157 159 165 171 180 180 169 166 195 215 210 203 185 180 185 235 232 107 86 85 100 119 133 139 138 138 137 135 135 137 140 139 130 115 95 76
143 141 139 141 146 154 158 152 144 148 152 163 183 187 182 176 184 200 189 195 192 186 200 235 208 142 103 101 105 113 126 143 143 143 144 143 145 148 151 153 154 144 124 98
144 149 153 157 156 152 148 144 147 156 156 164 191 200 192 180 171 157 171 191 198 197 201 213 194 159 139 132 124 119 115 121 129 134 142 144 150 156 161 165 161 149 135 117
139 140 140 139 144 149 152 155 158 168 172 173 192 204 192 179 170 174 181 192 208 221 220 204 185 175 165 157 143 130 123 123 129 136 143 148 154 162 167 163 150 138 134 127